Bemidji, MN

11:11 AM CDT on October 22, 2017 (GMT -0500)
Bemidji-Beltrami County

Weather History for KBJI - April, 2013

Change the Weather History Date:

Wednesday, April 17, 2013

  Actual Average Record
Temperature  
Mean Temperature 32 °F -  
Max Temperature 34 °F 54 °F 75 °F (1977)
Min Temperature 30 °F 28 °F 10 °F (1951)
Degree Days  
Heating Degree Days 33    
Moisture  
Dew Point 29 °F    
Average Humidity 88    
Maximum Humidity 99    
Minimum Humidity 75    
Precipitation  
Precipitation 0.02 in - - ()
Sea Level Pressure  
Sea Level Pressure 30.23 in    
Wind  
Wind Speed 3 mph (East)    
Max Wind Speed 7 mph    
Max Gust Speed -    
Visibility 6 miles    
Events Snow    
Averages and records for this station are not official NWS values.
T = Trace of Precipitation, MM = Missing Value Source: NWS Daily Summary

Daily Weather History Graph

Daily Weather History Graph

Search for Another Location

Airport or City:

Trip Planner

Search our weather history database for the weather conditions in past years. The results will help you decide how hot, cold, wet, or windy it might be!

Date:

Astronomy

Apr. 17, 2013 Rise Set
Actual Time 6:26 AM CDT 8:12 PM CDT
Civil Twilight 5:54 AM CDT 8:45 PM CDT
Nautical Twilight 5:14 AM CDT 9:25 PM CDT
Astronomical Twilight 4:31 AM CDT 10:08 PM CDT
Moon 11:33 AM CDT (4/17) 1:59 AM CDT (4/17)
Length of Visible Light 14h 50m
Length of Day
13h 45m
Waxing Crescent, 42% of the Moon is Illuminated
Apr 17
Waxing Crescent
Apr 18
First Quarter
Apr 25
Full
May 2
Last Quarter
May 9
New

Hourly Weather History & Observations

Time (CDT) Temp. Windchill Dew Point Humidity Pressure Visibility Wind Dir Wind Speed Gust Speed Precip Events Conditions
12:15 AM 32.0 °F - 25.0 °F 75% 30.32 in 10.0 mi Calm Calm - N/A   Overcast
12:35 AM 32.0 °F - 25.0 °F 75% 30.33 in 10.0 mi Calm Calm - N/A   Overcast
12:55 AM 32.0 °F - 25.0 °F 75% 30.33 in 10.0 mi Calm Calm - N/A   Overcast
1:15 AM 32.0 °F - 25.2 °F 76% 30.34 in 10.0 mi Calm Calm - N/A   Overcast
1:35 AM 32.0 °F - 25.2 °F 76% 30.35 in 10.0 mi Calm Calm - N/A   Overcast
1:55 AM 32.0 °F - 25.2 °F 76% 30.34 in 10.0 mi Calm Calm - N/A   Overcast
2:15 AM 31.6 °F - 25.7 °F 79% 30.34 in 7.0 mi Calm Calm - N/A   Overcast
2:35 AM 30.9 °F - 25.9 °F 82% 30.34 in 7.0 mi Calm Calm - N/A   Overcast
2:55 AM 30.6 °F - 26.2 °F 84% 30.33 in 10.0 mi Calm Calm - N/A   Overcast
3:15 AM 31.1 °F - 26.1 °F 82% 30.34 in 10.0 mi Calm Calm - N/A   Overcast
3:35 AM 31.5 °F - 25.9 °F 80% 30.33 in 10.0 mi Calm Calm - N/A   Overcast
3:55 AM 31.1 °F 26.4 °F 26.1 °F 82% 30.32 in 10.0 mi ESE 4.6 mph - N/A   Overcast
4:15 AM 31.6 °F 27.0 °F 25.7 °F 79% 30.33 in 10.0 mi East 4.6 mph - N/A   Overcast
4:55 AM 31.6 °F 27.0 °F 26.2 °F 80% 30.33 in 10.0 mi East 4.6 mph - N/A   Overcast
5:15 AM 31.5 °F 28.1 °F 26.4 °F 82% 30.33 in 10.0 mi East 3.5 mph - N/A   Overcast
5:35 AM 31.5 °F 28.1 °F 26.6 °F 82% 30.32 in 10.0 mi East 3.5 mph - N/A Snow Light Snow
5:55 AM 31.5 °F 25.8 °F 26.8 °F 83% 30.31 in 7.0 mi East 5.8 mph - N/A   Overcast
6:15 AM 31.5 °F 28.1 °F 27.1 °F 84% 30.32 in 7.0 mi ENE 3.5 mph - N/A Snow Light Snow
6:35 AM 31.3 °F 27.9 °F 27.5 °F 86% 30.30 in 3.0 mi ENE 3.5 mph - N/A Snow Light Snow
6:55 AM 30.9 °F 27.5 °F 28.2 °F 90% 30.30 in 2.5 mi East 3.5 mph - N/A Snow Light Snow
7:15 AM 30.6 °F 27.1 °F 28.6 °F 92% 30.30 in 3.0 mi ESE 3.5 mph - N/A Snow Light Snow
7:35 AM 30.6 °F 25.8 °F 29.1 °F 94% 30.29 in 1.5 mi ESE 4.6 mph - N/A Snow Light Snow
7:55 AM 30.6 °F 25.8 °F 29.3 °F 95% 30.29 in 1.5 mi East 4.6 mph - N/A Snow Light Snow
8:15 AM 30.6 °F 24.7 °F 29.3 °F 95% 30.29 in 2.0 mi ESE 5.8 mph - N/A Snow Light Snow
8:35 AM 30.6 °F 24.7 °F 29.3 °F 95% 30.29 in 1.0 mi SE 5.8 mph - N/A Snow Light Snow
8:55 AM 30.9 °F 25.2 °F 29.7 °F 95% 30.31 in 1.0 mi SE 5.8 mph - N/A Snow Light Snow
9:15 AM 31.1 °F 26.4 °F 29.8 °F 95% 30.30 in 0.8 mi SSE 4.6 mph - N/A Snow Light Snow
9:35 AM 31.3 °F - 30.2 °F 96% 30.30 in 0.8 mi Calm Calm - N/A Snow Light Snow
9:55 AM 31.5 °F - 30.4 °F 96% 30.30 in 0.8 mi Calm Calm - 0.01 in Snow Light Snow
10:15 AM 31.6 °F 27.0 °F 30.4 °F 95% 30.29 in 1.5 mi ESE 4.6 mph - N/A Snow Light Snow
10:35 AM 31.8 °F 27.3 °F 30.4 °F 94% 30.29 in 1.5 mi East 4.6 mph - N/A Snow Light Snow
10:55 AM 32.0 °F 28.7 °F 30.6 °F 94% 30.28 in 2.0 mi ESE 3.5 mph - N/A Snow Light Snow
11:15 AM 32.0 °F 26.4 °F 30.7 °F 95% 30.28 in 2.0 mi ESE 5.8 mph - N/A Snow Light Snow
11:35 AM 32.4 °F 27.9 °F 30.6 °F 93% 30.28 in 2.0 mi SE 4.6 mph - 0.01 in Snow Light Snow
11:55 AM 32.9 °F 26.7 °F 30.2 °F 90% 30.27 in 4.0 mi SSE 6.9 mph - 0.01 in Snow Light Snow
12:15 PM 32.9 °F 27.5 °F 30.2 °F 90% 30.26 in 5.0 mi ESE 5.8 mph - N/A Snow Light Snow
12:35 PM 32.9 °F 27.5 °F 29.8 °F 88% 30.26 in 10.0 mi ESE 5.8 mph - N/A   Overcast
12:55 PM 32.9 °F 27.5 °F 29.3 °F 87% 30.25 in 10.0 mi ESE 5.8 mph - N/A   Overcast
1:15 PM 33.1 °F 26.9 °F 29.3 °F 86% 30.24 in 10.0 mi ESE 6.9 mph - N/A   Overcast
1:35 PM 33.1 °F 27.7 °F 28.9 °F 85% 30.23 in 10.0 mi ESE 5.8 mph - N/A   Overcast
1:55 PM 33.4 °F 28.1 °F 29.3 °F 85% 30.22 in 7.0 mi ESE 5.8 mph - N/A   Overcast
2:15 PM 33.4 °F 29.1 °F 28.9 °F 84% 30.22 in 7.0 mi ESE 4.6 mph - N/A   Overcast
2:35 PM 33.6 °F 28.4 °F 29.3 °F 84% 30.19 in 5.0 mi East 5.8 mph - N/A Snow Light Snow
2:55 PM 34.2 °F 30.0 °F 29.7 °F 84% 30.19 in 7.0 mi East 4.6 mph - N/A   Overcast
3:35 PM 34.7 °F 29.6 °F 29.5 °F 81% 30.17 in 7.0 mi ENE 5.8 mph - N/A   Overcast
3:55 PM 34.7 °F 30.6 °F 29.5 °F 81% 30.16 in 7.0 mi ENE 4.6 mph - N/A   Overcast
4:15 PM 34.9 °F 29.9 °F 29.3 °F 80% 30.16 in 7.0 mi East 5.8 mph - N/A   Overcast
4:35 PM 34.9 °F 32.0 °F 29.3 °F 80% 30.16 in 7.0 mi ENE 3.5 mph - N/A   Overcast
4:55 PM 34.9 °F 30.8 °F 29.5 °F 81% 30.16 in 5.0 mi ENE 4.6 mph - N/A   Haze
5:15 PM 34.7 °F 29.6 °F 29.3 °F 81% 30.16 in 7.0 mi ENE 5.8 mph - N/A   Overcast
5:35 PM 34.5 °F 30.4 °F 29.5 °F 82% 30.15 in 7.0 mi ENE 4.6 mph - N/A   Overcast
5:55 PM 34.0 °F 29.8 °F 29.7 °F 84% 30.14 in 7.0 mi ENE 4.6 mph - N/A   Overcast
6:15 PM 34.0 °F 31.0 °F 29.5 °F 84% 30.14 in 7.0 mi ENE 3.5 mph - N/A   Overcast
6:35 PM 34.0 °F 29.8 °F 30.0 °F 85% 30.13 in 7.0 mi ENE 4.6 mph - N/A Snow Light Snow
6:55 PM 33.8 °F 29.6 °F 30.6 °F 88% 30.13 in 7.0 mi ENE 4.6 mph - N/A Snow Light Snow
7:15 PM 33.3 °F 30.2 °F 30.9 °F 91% 30.13 in 7.0 mi NE 3.5 mph - N/A Snow Light Snow
7:35 PM 33.1 °F - 31.1 °F 92% 30.13 in 7.0 mi Calm Calm - N/A Snow Light Snow
7:55 PM 32.9 °F 29.8 °F 31.3 °F 94% 30.13 in 3.0 mi NNE 3.5 mph - N/A   Overcast
8:15 PM 32.5 °F - 31.5 °F 96% 30.12 in 2.5 mi Calm Calm - N/A   Overcast
8:35 PM 32.4 °F 27.9 °F 31.8 °F 98% 30.12 in 3.0 mi North 4.6 mph - N/A Snow Light Snow
8:55 PM 32.0 °F 27.5 °F 31.6 °F 99% 30.12 in 5.0 mi NNE 4.6 mph - N/A Snow Light Snow
9:15 PM 32.0 °F 28.7 °F 31.6 °F 99% 30.12 in 4.0 mi NE 3.5 mph - N/A Snow Light Snow
9:35 PM 32.0 °F - 31.5 °F 98% 30.12 in 3.0 mi Calm Calm - N/A Snow Light Snow
9:55 PM 32.0 °F 27.5 °F 31.5 °F 98% 30.12 in 7.0 mi NE 4.6 mph - N/A Snow Light Snow
10:15 PM 32.0 °F 27.5 °F 31.1 °F 96% 30.12 in 10.0 mi NE 4.6 mph - N/A Snow Light Snow
10:35 PM 31.5 °F 26.8 °F 30.7 °F 97% 30.10 in 10.0 mi NE 4.6 mph - N/A   Overcast
10:55 PM 31.3 °F 27.9 °F 30.7 °F 98% 30.10 in 10.0 mi NE 3.5 mph - N/A Snow Light Snow
11:15 PM 31.6 °F 28.3 °F 30.9 °F 97% 30.10 in 4.0 mi NNE 3.5 mph - N/A Snow Light Snow
11:35 PM 31.1 °F 27.7 °F 30.7 °F 99% 30.09 in 7.0 mi NE 3.5 mph - N/A Snow Light Snow
11:55 PM 31.1 °F 26.4 °F 30.7 °F 99% 30.08 in 2.0 mi NNE 4.6 mph - N/A Snow Light Snow